sat.trackr.live / text

‹ back to catalog

STARLINK-3811

NORAD 52383 · 2022-045BE

PAYLOAD ACTIVE UNKNOWN

§ Identity

Operator
Country
US
Launch date
2022-04-29
Launch site
AFETR
Launch vehicle
Mass (kg)
RCS (m²)

Purposes: comms

External: N2YO · Heavens-Above · Gunter

§ Orbital elements

Epoch: 2026-05-25T03:04:30.929664Z

Period
95.44 min
Inclination
53.2131°
Eccentricity
0.0001085
Mean motion
15.08835530 rev/d
Perigee alt
539.0 km
Apogee alt
540.5 km
Semi-major
6,917.9 km
B*
2.6036e-5
RAAN
196.0048°
Arg perigee
83.3867°
Mean anomaly
276.7249°
Rev number
22,760

§ Raw data

STARLINK-38111 52383U 22045BE  26145.12813576  .00000127  00000+0  26036-4 0  99952 52383  53.2131 196.0048 0001085  83.3867 276.7249 15.08835530227607

JSON: /api/v1/satellites/52383 · /tle

For live sub-satellite position, see the globe view (requires WebGL).

§ Visibility from observer

Set your observer location to see the next 7 days of passes ≥ 10°. The values pass through the URL so the page stays shareable.

No JS? Fill the form by hand. The geolocation button needs JavaScript.